Simultaneous Nadir Overpasses (SNOs) Predictions

Prediction of SNOs between GOES-17 and AQUA Satellite Orbit:

Table of predicted SNOs for the next 14.0 days since TLE Epoch: 5/29/2021
Index Date Time (GOES-17) GOES-17 Lat,Lon AQUA Lat,Lon Distance(km) Time Diff (sec)
1 05/29/2021 10:57:33 0.00,-137.20 0.61,-140.11 331.05 80
2 05/31/2021 10:42:42 -0.00,-137.19 -0.01,-137.15 4.23 80
3 06/02/2021 10:30:31 -0.00,-137.18 -0.64,-134.20 339.50 80
4 06/02/2021 22:51:55 -0.00,-137.18 -0.48,-139.39 251.14 80
5 06/04/2021 22:42:24 -0.00,-137.17 0.16,-136.43 83.91 80
6 06/06/2021 22:30:13 0.00,-137.16 0.80,-133.48 418.40 80
7 06/07/2021 10:51:28 -0.00,-137.15 0.34,-138.63 168.26 80
8 06/09/2021 10:36:37 -0.01,-137.13 -0.30,-135.67 165.26 80
9 06/09/2021 22:58:00 0.00,-137.12 -0.80,-140.87 426.14 80
10 06/11/2021 10:24:26 -0.01,-137.10 -0.95,-132.72 497.98 80
11 06/11/2021 22:45:49 0.01,-137.09 -0.15,-137.91 93.56 80
